Time,TemperatureF,DewpointF,PressureIn,WindDirection,WindDirectionDegrees,WindSpeedMPH,WindSpeedGustMPH,Humidity,HourlyPrecipIn,Conditions,Clouds,dailyrainin,SoftwareType,DateUTC
2013-04-23 00:01:00,51.3,30.7,30.21,SE,134,4.0,12.0,45,0.00,,CLR,0.00,VWS V13.01,2013-04-23 04:01:00,
2013-04-23 00:02:00,51.2,30.6,30.21,SE,134,1.0,4.0,45,0.00,,CLR,0.00,VWS V13.01,2013-04-23 04:02:00,
2013-04-23 00:07:00,51.1,30.5,30.21,ESE,121,0.0,12.0,45,0.00,,CLR,0.00,VWS V13.01,2013-04-23 04:07:00,
2013-04-23 00:12:00,51.0,31.0,30.21,SE,142,1.0,12.0,46,0.00,,CLR,0.00,VWS V13.01,2013-04-23 04:12:00,
2013-04-23 00:17:00,50.9,30.9,30.21,East,94,0.0,12.0,46,0.00,,CLR,0.00,VWS V13.01,2013-04-23 04:17:00,
2013-04-23 00:22:00,50.8,30.8,30.21,SSE,159,0.0,12.0,46,0.00,,CLR,0.00,VWS V13.01,2013-04-23 04:22:00,
2013-04-23 00:27:00,50.6,31.1,30.21,South,179,1.0,12.0,47,0.00,,CLR,0.00,VWS V13.01,2013-04-23 04:27:00,
2013-04-23 00:32:00,50.4,31.0,30.21,SE,132,0.0,9.0,47,0.00,,CLR,0.00,VWS V13.01,2013-04-23 04:32:00,
2013-04-23 00:37:00,50.3,31.4,30.21,SE,145,0.0,9.0,48,0.00,,CLR,0.00,VWS V13.01,2013-04-23 04:37:00,
2013-04-23 00:42:00,50.2,31.3,30.21,SE,134,1.0,10.0,48,0.00,,CLR,0.00,VWS V13.01,2013-04-23 04:42:00,
2013-04-23 00:47:00,50.3,31.4,30.21,SE,140,4.0,10.0,48,0.00,,CLR,0.00,VWS V13.01,2013-04-23 04:47:00,
2013-04-23 00:52:00,50.1,31.7,30.21,South,178,0.0,13.0,49,0.00,,CLR,0.00,VWS V13.01,2013-04-23 04:52:00,
2013-04-23 00:57:00,50.0,32.1,30.21,SE,139,4.0,13.0,50,0.00,,CLR,0.00,VWS V13.01,2013-04-23 04:57:00,
2013-04-23 01:02:00,49.8,31.9,30.21,SE,144,0.0,4.0,50,0.00,,CLR,0.00,VWS V13.01,2013-04-23 05:02:00,
2013-04-23 01:07:00,49.7,32.3,30.21,South,189,2.0,9.0,51,0.00,,CLR,0.00,VWS V13.01,2013-04-23 05:07:00,
2013-04-23 01:12:00,49.6,32.2,30.21,ESE,118,4.0,12.0,51,0.00,,CLR,0.00,VWS V13.01,2013-04-23 05:12:00,
2013-04-23 01:17:00,49.6,32.2,30.21,South,182,3.0,12.0,51,0.00,,CLR,0.00,VWS V13.01,2013-04-23 05:17:00,
2013-04-23 01:22:00,49.4,32.5,30.21,ESE,115,5.0,12.0,52,0.00,,CLR,0.00,VWS V13.01,2013-04-23 05:22:00,
2013-04-23 01:27:00,49.2,32.8,30.21,South,172,1.0,12.0,53,0.00,,CLR,0.00,VWS V13.01,2013-04-23 05:27:00,
2013-04-23 01:32:00,49.2,32.8,30.21,SSE,160,0.0,14.0,53,0.00,,CLR,0.00,VWS V13.01,2013-04-23 05:32:00,
2013-04-23 01:37:00,49.1,32.7,30.21,SSE,148,5.0,14.0,53,0.00,,CLR,0.00,VWS V13.01,2013-04-23 05:37:00,
2013-04-23 01:42:00,49.1,32.7,30.21,SW,218,0.0,14.0,53,0.00,,CLR,0.00,VWS V13.01,2013-04-23 05:42:00,
2013-04-23 01:47:00,49.0,33.1,30.21,SSW,204,0.0,14.0,54,0.00,,CLR,0.00,VWS V13.01,2013-04-23 05:47:00,
2013-04-23 01:52:00,48.8,32.9,30.21,SE,133,4.0,14.0,54,0.00,,CLR,0.00,VWS V13.01,2013-04-23 05:52:00,
2013-04-23 01:57:00,48.7,33.3,30.21,SSE,167,1.0,14.0,55,0.00,,CLR,0.00,VWS V13.01,2013-04-23 05:57:00,
2013-04-23 02:02:00,48.6,33.2,30.21,SSE,166,4.0,9.0,55,0.00,,CLR,0.00,VWS V13.01,2013-04-23 06:02:00,
2013-04-23 02:07:00,48.4,33.4,30.20,SSW,199,4.0,9.0,56,0.00,,CLR,0.00,VWS V13.01,2013-04-23 06:07:00,
2013-04-23 02:12:00,48.3,33.3,30.20,SSE,157,0.0,11.0,56,0.00,,CLR,0.00,VWS V13.01,2013-04-23 06:12:00,
2013-04-23 02:17:00,48.2,33.3,30.20,South,169,3.0,11.0,56,0.00,,CLR,0.00,VWS V13.01,2013-04-23 06:17:00,
2013-04-23 02:22:00,48.3,33.8,30.20,South,190,0.0,11.0,57,0.00,,CLR,0.00,VWS V13.01,2013-04-23 06:22:00,
2013-04-23 02:27:00,48.2,33.7,30.20,SSE,152,0.0,15.0,57,0.00,,CLR,0.00,VWS V13.01,2013-04-23 06:27:00,
2013-04-23 02:33:00,48.2,33.7,30.20,SE,125,0.0,7.0,57,0.00,,CLR,0.00,VWS V13.01,2013-04-23 06:33:00,
2013-04-23 02:38:00,48.1,33.6,30.20,SE,144,1.0,11.0,57,0.00,,CLR,0.00,VWS V13.01,2013-04-23 06:38:00,
2013-04-23 02:43:00,47.9,33.4,30.20,SSE,166,0.0,11.0,57,0.00,,CLR,0.00,VWS V13.01,2013-04-23 06:43:00,
2013-04-23 02:48:00,47.8,33.8,30.20,SE,144,3.0,11.0,58,0.00,,CLR,0.00,VWS V13.01,2013-04-23 06:48:00,
2013-04-23 02:53:00,47.6,33.6,30.19,SE,128,0.0,11.0,58,0.00,,CLR,0.00,VWS V13.01,2013-04-23 06:53:00,
2013-04-23 02:58:00,47.5,33.9,30.19,SE,132,3.0,11.0,59,0.00,,CLR,0.00,VWS V13.01,2013-04-23 06:58:00,
2013-04-23 03:03:00,47.4,34.2,30.19,SSE,148,0.0,6.0,60,0.00,,CLR,0.00,VWS V13.01,2013-04-23 07:03:00,
2013-04-23 03:08:00,47.3,34.1,30.19,South,188,6.0,10.0,60,0.00,,CLR,0.00,VWS V13.01,2013-04-23 07:08:00,
2013-04-23 03:13:00,47.2,34.0,30.19,NE,51,5.0,10.0,60,0.00,,CLR,0.00,VWS V13.01,2013-04-23 07:13:00,
2013-04-23 03:18:00,47.0,34.3,30.19,South,169,0.0,10.0,61,0.00,,CLR,0.00,VWS V13.01,2013-04-23 07:18:00,
2013-04-23 03:23:00,46.8,34.1,30.19,ESE,121,4.0,11.0,61,0.00,,CLR,0.00,VWS V13.01,2013-04-23 07:23:00,
2013-04-23 03:28:00,46.7,34.4,30.19,East,96,2.0,11.0,62,0.00,,CLR,0.00,VWS V13.01,2013-04-23 07:28:00,
2013-04-23 03:33:00,46.5,34.2,30.19,SSE,159,0.0,14.0,62,0.00,,CLR,0.00,VWS V13.01,2013-04-23 07:33:00,
2013-04-23 03:38:00,46.4,34.1,30.19,ESE,103,3.0,14.0,62,0.00,,CLR,0.00,VWS V13.01,2013-04-23 07:38:00,
2013-04-23 03:43:00,46.3,34.4,30.19,SSE,161,6.0,14.0,63,0.00,,CLR,0.00,VWS V13.01,2013-04-23 07:43:00,
2013-04-23 03:48:00,46.3,34.4,30.19,SSW,194,1.0,14.0,63,0.00,,CLR,0.00,VWS V13.01,2013-04-23 07:48:00,
2013-04-23 03:53:00,46.2,34.3,30.19,SE,130,0.0,14.0,63,0.00,,CLR,0.00,VWS V13.01,2013-04-23 07:53:00,
2013-04-23 03:58:00,46.0,34.5,30.19,East,89,1.0,14.0,64,0.00,,CLR,0.00,VWS V13.01,2013-04-23 07:58:00,
2013-04-23 04:03:00,45.9,34.4,30.19,South,183,4.0,12.0,64,0.00,,CLR,0.00,VWS V13.01,2013-04-23 08:03:00,
2013-04-23 04:08:00,45.8,34.3,30.19,SSE,150,1.0,12.0,64,0.00,,CLR,0.00,VWS V13.01,2013-04-23 08:08:00,
2013-04-23 04:13:00,45.6,34.5,30.19,SSE,163,0.0,12.0,65,0.00,,CLR,0.00,VWS V13.01,2013-04-23 08:13:00,
2013-04-23 04:18:00,45.5,34.4,30.19,SE,142,0.0,12.0,65,0.00,,CLR,0.00,VWS V13.01,2013-04-23 08:18:00,
2013-04-23 04:23:00,45.3,34.2,30.19,SSE,154,0.0,14.0,65,0.00,,CLR,0.00,VWS V13.01,2013-04-23 08:23:00,
2013-04-23 04:28:00,45.2,34.5,30.19,South,184,5.0,14.0,66,0.00,,CLR,0.00,VWS V13.01,2013-04-23 08:28:00,
2013-04-23 04:33:00,45.2,34.5,30.19,SSW,198,0.0,9.0,66,0.00,,CLR,0.00,VWS V13.01,2013-04-23 08:33:00,
2013-04-23 04:38:00,45.0,34.3,30.19,South,178,0.0,9.0,66,0.00,,CLR,0.00,VWS V13.01,2013-04-23 08:38:00,
2013-04-23 04:43:00,45.0,34.7,30.18,South,169,2.0,10.0,67,0.00,,CLR,0.00,VWS V13.01,2013-04-23 08:43:00,
2013-04-23 04:48:00,44.8,34.5,30.18,South,184,3.0,10.0,67,0.00,,CLR,0.00,VWS V13.01,2013-04-23 08:48:00,
2013-04-23 04:53:00,44.7,34.4,30.18,South,173,6.0,11.0,67,0.00,,CLR,0.00,VWS V13.01,2013-04-23 08:53:00,
2013-04-23 04:58:00,44.6,34.3,30.18,SSE,158,1.0,11.0,67,0.00,,CLR,0.00,VWS V13.01,2013-04-23 08:58:00,
2013-04-23 05:03:00,44.6,34.7,30.18,SW,219,2.0,4.0,68,0.00,,CLR,0.00,VWS V13.01,2013-04-23 09:03:00,
2013-04-23 05:08:00,44.4,34.5,30.18,SSE,156,2.0,10.0,68,0.00,,CLR,0.00,VWS V13.01,2013-04-23 09:08:00,
2013-04-23 05:14:00,44.4,34.5,30.18,SSW,201,3.0,10.0,68,0.00,,CLR,0.00,VWS V13.01,2013-04-23 09:14:00,
2013-04-23 05:19:00,44.3,34.4,30.18,East,89,6.0,12.0,68,0.00,,CLR,0.00,VWS V13.01,2013-04-23 09:19:00,
2013-04-23 05:24:00,44.2,34.3,30.18,SE,126,6.0,12.0,68,0.00,,CLR,0.00,VWS V13.01,2013-04-23 09:24:00,
2013-04-23 05:29:00,44.1,34.6,30.18,East,85,1.0,12.0,69,0.00,,CLR,0.00,VWS V13.01,2013-04-23 09:29:00,
2013-04-23 05:34:00,43.9,34.4,30.18,SSE,163,7.0,7.0,69,0.00,,CLR,0.00,VWS V13.01,2013-04-23 09:34:00,
2013-04-23 05:39:00,43.9,34.4,30.18,SE,142,6.0,15.0,69,0.00,,CLR,0.00,VWS V13.01,2013-04-23 09:39:00,
2013-04-23 05:44:00,43.8,34.3,30.18,SE,139,1.0,15.0,69,0.00,,CLR,0.00,VWS V13.01,2013-04-23 09:44:00,
2013-04-23 05:49:00,43.7,34.2,30.18,SSE,149,1.0,15.0,69,0.00,,CLR,0.00,VWS V13.01,2013-04-23 09:49:00,
2013-04-23 05:54:00,43.5,34.0,30.18,ESE,119,6.0,15.0,69,0.00,,CLR,0.00,VWS V13.01,2013-04-23 09:54:00,
2013-04-23 05:59:00,43.4,34.3,30.18,South,178,3.0,15.0,70,0.00,,CLR,0.00,VWS V13.01,2013-04-23 09:59:00,
2013-04-23 06:04:00,43.2,34.1,30.18,SE,135,1.0,6.0,70,0.00,,CLR,0.00,VWS V13.01,2013-04-23 10:04:00,
2013-04-23 06:09:00,43.1,34.0,30.18,SSW,201,2.0,7.0,70,0.00,,CLR,0.00,VWS V13.01,2013-04-23 10:09:00,
2013-04-23 06:14:00,43.0,33.9,30.18,SE,135,5.0,9.0,70,0.00,,CLR,0.00,VWS V13.01,2013-04-23 10:14:00,
2013-04-23 06:19:00,42.9,34.2,30.18,SE,126,1.0,9.0,71,0.00,,CLR,0.00,VWS V13.01,2013-04-23 10:19:00,
2013-04-23 06:24:00,42.7,34.0,30.18,SSE,157,0.0,9.0,71,0.00,,CLR,0.00,VWS V13.01,2013-04-23 10:24:00,
2013-04-23 06:29:00,42.7,34.0,30.18,South,169,1.0,11.0,71,0.00,,CLR,0.00,VWS V13.01,2013-04-23 10:29:00,
2013-04-23 06:34:00,42.7,34.0,30.18,SSE,163,2.0,11.0,71,0.00,,CLR,0.00,VWS V13.01,2013-04-23 10:34:00,
2013-04-23 06:39:00,42.6,33.9,30.18,South,180,3.0,11.0,71,0.00,,CLR,0.00,VWS V13.01,2013-04-23 10:39:00,
2013-04-23 06:44:00,42.5,33.8,30.18,South,173,0.0,11.0,71,0.00,,CLR,0.00,VWS V13.01,2013-04-23 10:44:00,
2013-04-23 06:49:00,42.4,33.7,30.18,South,182,1.0,11.0,71,0.00,,CLR,0.00,VWS V13.01,2013-04-23 10:49:00,
2013-04-23 06:54:00,42.4,33.7,30.18,East,82,2.0,11.0,71,0.00,,CLR,0.00,VWS V13.01,2013-04-23 10:54:00,
2013-04-23 06:59:00,42.4,33.7,30.18,SSE,164,1.0,11.0,71,0.00,,CLR,0.00,VWS V13.01,2013-04-23 10:59:00,
2013-04-23 07:04:00,42.4,33.7,30.18,South,170,4.0,7.0,71,0.00,,CLR,0.00,VWS V13.01,2013-04-23 11:04:00,
2013-04-23 07:09:00,42.5,33.8,30.18,South,178,1.0,9.0,71,0.00,,CLR,0.00,VWS V13.01,2013-04-23 11:09:00,
2013-04-23 07:14:00,42.6,33.9,30.18,SE,141,1.0,10.0,71,0.00,,CLR,0.00,VWS V13.01,2013-04-23 11:14:00,
2013-04-23 07:19:00,42.7,33.6,30.18,East,101,1.0,10.0,70,0.00,,CLR,0.00,VWS V13.01,2013-04-23 11:19:00,
2013-04-23 07:24:00,42.7,33.6,30.18,SSW,198,3.0,10.0,70,0.00,,CLR,0.00,VWS V13.01,2013-04-23 11:24:00,
2013-04-23 07:29:00,42.8,33.7,30.18,SSE,168,0.0,11.0,70,0.00,,CLR,0.00,VWS V13.01,2013-04-23 11:29:00,
2013-04-23 07:34:00,42.9,33.8,30.17,East,98,1.0,12.0,70,0.00,,CLR,0.00,VWS V13.01,2013-04-23 11:34:00,
2013-04-23 07:39:00,43.0,33.9,30.17,SE,143,3.0,12.0,70,0.00,,CLR,0.00,VWS V13.01,2013-04-23 11:39:00,
2013-04-23 07:44:00,43.2,33.7,30.16,South,186,1.0,12.0,69,0.00,,CLR,0.00,VWS V13.01,2013-04-23 11:44:00,
2013-04-23 07:49:00,43.5,34.0,30.16,South,181,2.0,12.0,69,0.00,,CLR,0.00,VWS V13.01,2013-04-23 11:49:00,
2013-04-23 07:54:00,43.7,33.8,30.16,South,186,0.0,12.0,68,0.00,,CLR,0.00,VWS V13.01,2013-04-23 11:54:00,
2013-04-23 07:59:00,44.0,34.1,30.16,ESE,120,3.0,12.0,68,0.00,,CLR,0.00,VWS V13.01,2013-04-23 11:59:00,
2013-04-23 08:04:00,44.2,34.3,30.16,SE,144,0.0,10.0,68,0.00,,CLR,0.00,VWS V13.01,2013-04-23 12:04:00,
2013-04-23 08:09:00,44.4,34.1,30.16,ENE,75,3.0,10.0,67,0.00,,CLR,0.00,VWS V13.01,2013-04-23 12:09:00,
2013-04-23 08:14:00,44.7,34.4,30.15,ENE,72,2.0,10.0,67,0.00,,CLR,0.00,VWS V13.01,2013-04-23 12:14:00,
2013-04-23 08:19:00,45.0,34.7,30.15,SE,134,0.0,11.0,67,0.00,,CLR,0.00,VWS V13.01,2013-04-23 12:19:00,
2013-04-23 08:24:00,45.2,34.5,30.15,South,185,5.0,11.0,66,0.00,,CLR,0.00,VWS V13.01,2013-04-23 12:24:00,
2013-04-23 08:29:00,45.6,34.5,30.14,ESE,117,0.0,11.0,65,0.00,,CLR,0.00,VWS V13.01,2013-04-23 12:29:00,
2013-04-23 08:34:00,45.9,34.8,30.14,SE,132,3.0,9.0,65,0.00,,CLR,0.00,VWS V13.01,2013-04-23 12:34:00,
2013-04-23 08:39:00,46.1,35.0,30.14,SSW,209,0.0,15.0,65,0.00,,CLR,0.00,VWS V13.01,2013-04-23 12:39:00,
2013-04-23 08:44:00,46.5,35.4,30.14,SSE,155,2.0,15.0,65,0.00,,CLR,0.00,VWS V13.01,2013-04-23 12:44:00,
2013-04-23 08:49:00,47.0,35.5,30.14,SE,140,0.0,15.0,64,0.00,,CLR,0.00,VWS V13.01,2013-04-23 12:49:00,
2013-04-23 08:54:00,47.4,35.8,30.14,SE,138,0.0,15.0,64,0.00,,CLR,0.00,VWS V13.01,2013-04-23 12:54:00,
2013-04-23 08:59:00,48.0,36.0,30.14,South,180,0.0,15.0,63,0.00,,CLR,0.00,VWS V13.01,2013-04-23 12:59:00,
2013-04-23 09:04:00,48.4,36.0,30.14,SSE,152,1.0,5.0,62,0.00,,CLR,0.00,VWS V13.01,2013-04-23 13:04:00,
2013-04-23 09:09:00,49.0,36.6,30.14,SE,138,1.0,5.0,62,0.00,,CLR,0.00,VWS V13.01,2013-04-23 13:09:00,
2013-04-23 09:14:00,49.6,37.1,30.15,SSW,194,0.0,5.0,62,0.00,,CLR,0.00,VWS V13.01,2013-04-23 13:14:00,
2013-04-23 09:19:00,50.2,37.3,30.14,SSW,199,0.0,5.0,61,0.00,,CLR,0.00,VWS V13.01,2013-04-23 13:19:00,
2013-04-23 09:24:00,51.0,37.6,30.14,SE,143,1.0,5.0,60,0.00,,CLR,0.00,VWS V13.01,2013-04-23 13:24:00,
2013-04-23 09:29:00,51.7,37.8,30.14,SE,124,1.0,5.0,59,0.00,,CLR,0.00,VWS V13.01,2013-04-23 13:29:00,
2013-04-23 09:34:00,52.2,37.9,30.13,South,180,1.0,5.0,58,0.00,,CLR,0.00,VWS V13.01,2013-04-23 13:34:00,
2013-04-23 09:40:00,52.8,38.0,30.14,South,183,2.0,5.0,57,0.00,,CLR,0.00,VWS V13.01,2013-04-23 13:40:00,
2013-04-23 09:45:00,53.0,37.7,30.13,South,176,2.0,7.0,56,0.00,,CLR,0.00,VWS V13.01,2013-04-23 13:45:00,
2013-04-23 09:50:00,53.3,38.0,30.13,South,190,1.0,7.0,56,0.00,,CLR,0.00,VWS V13.01,2013-04-23 13:50:00,
2013-04-23 09:55:00,53.5,37.8,30.12,South,180,1.0,7.0,55,0.00,,CLR,0.00,VWS V13.01,2013-04-23 13:55:00,
2013-04-23 10:00:00,53.9,38.6,30.13,SE,133,1.0,7.0,56,0.00,,CLR,0.00,VWS V13.01,2013-04-23 14:00:00,
2013-04-23 10:05:00,54.5,38.7,30.12,South,189,0.0,5.0,55,0.00,,CLR,0.00,VWS V13.01,2013-04-23 14:05:00,
2013-04-23 10:10:00,55.0,38.7,30.12,SE,129,2.0,5.0,54,0.00,,CLR,0.00,VWS V13.01,2013-04-23 14:10:00,
2013-04-23 10:15:00,55.5,38.2,30.11,South,191,1.0,5.0,52,0.00,,CLR,0.00,VWS V13.01,2013-04-23 14:15:00,
2013-04-23 10:20:00,55.9,39.5,30.11,SE,137,0.0,12.0,54,0.00,,CLR,0.00,VWS V13.01,2013-04-23 14:20:00,
2013-04-23 10:25:00,56.7,39.3,30.11,SSE,157,3.0,12.0,52,0.00,,CLR,0.00,VWS V13.01,2013-04-23 14:25:00,
2013-04-23 10:30:00,57.0,39.1,30.11,SE,135,0.0,12.0,51,0.00,,CLR,0.00,VWS V13.01,2013-04-23 14:30:00,
2013-04-23 10:35:00,57.5,40.0,30.11,SSE,163,0.0,6.0,52,0.00,,CLR,0.00,VWS V13.01,2013-04-23 14:35:00,
2013-04-23 10:40:00,58.2,40.7,30.10,SSW,192,2.0,6.0,52,0.00,,CLR,0.00,VWS V13.01,2013-04-23 14:40:00,
2013-04-23 10:45:00,58.3,39.8,30.10,South,169,1.0,6.0,50,0.00,,CLR,0.00,VWS V13.01,2013-04-23 14:45:00,
2013-04-23 10:50:00,59.0,41.4,30.10,SE,142,0.0,6.0,52,0.00,,CLR,0.00,VWS V13.01,2013-04-23 14:50:00,
2013-04-23 10:55:00,59.5,41.9,30.10,SSW,210,1.0,6.0,52,0.00,,CLR,0.00,VWS V13.01,2013-04-23 14:55:00,
2013-04-23 11:00:00,59.5,39.3,30.10,SE,145,2.0,6.0,47,0.00,,CLR,0.00,VWS V13.01,2013-04-23 15:00:00,
2013-04-23 11:05:00,59.7,40.5,30.11,SSE,160,1.0,4.0,49,0.00,,CLR,0.00,VWS V13.01,2013-04-23 15:05:00,
2013-04-23 11:10:00,59.6,38.8,30.11,SSW,192,1.0,10.0,46,0.00,,CLR,0.00,VWS V13.01,2013-04-23 15:10:00,
2013-04-23 11:15:00,59.7,39.5,30.12,SSE,160,0.0,10.0,47,0.00,,CLR,0.00,VWS V13.01,2013-04-23 15:15:00,
2013-04-23 11:20:00,59.8,39.0,30.12,SSW,200,5.0,10.0,46,0.00,,CLR,0.00,VWS V13.01,2013-04-23 15:20:00,
2013-04-23 11:25:00,59.7,40.0,30.12,SSW,211,0.0,13.0,48,0.00,,CLR,0.00,VWS V13.01,2013-04-23 15:25:00,
2013-04-23 11:30:00,60.4,40.1,30.12,SSE,163,0.0,2.0,47,0.00,,CLR,0.00,VWS V13.01,2013-04-23 15:30:00,
2013-04-23 11:35:00,60.8,42.1,30.12,South,173,0.0,4.0,50,0.00,,CLR,0.00,VWS V13.01,2013-04-23 15:35:00,
2013-04-23 11:40:00,61.3,40.4,30.11,SW,217,0.0,6.0,46,0.00,,CLR,0.00,VWS V13.01,2013-04-23 15:40:00,
2013-04-23 11:45:00,61.7,40.7,30.11,WSW,239,3.0,6.0,46,0.00,,CLR,0.00,VWS V13.01,2013-04-23 15:45:00,
2013-04-23 11:50:00,62.3,41.8,30.11,East,92,1.0,6.0,47,0.00,,CLR,0.00,VWS V13.01,2013-04-23 15:50:00,
2013-04-23 11:55:00,62.9,41.8,30.11,ESE,109,0.0,6.0,46,0.00,,CLR,0.00,VWS V13.01,2013-04-23 15:55:00,
2013-04-23 12:00:00,63.1,41.4,30.11,SSW,198,0.0,1.0,45,0.00,,CLR,0.00,VWS V13.01,2013-04-23 16:00:00,
2013-04-23 12:05:00,63.6,41.9,30.10,SE,128,1.0,2.0,45,0.00,,CLR,0.00,VWS V13.01,2013-04-23 16:05:00,
2013-04-23 12:10:00,64.1,42.3,30.10,SE,128,0.0,2.0,45,0.00,,CLR,0.00,VWS V13.01,2013-04-23 16:10:00,
2013-04-23 12:15:00,64.3,40.7,30.10,South,188,1.0,4.0,42,0.00,,CLR,0.00,VWS V13.01,2013-04-23 16:15:00,
2013-04-23 12:20:00,63.8,40.9,30.09,SW,224,2.0,4.0,43,0.00,,CLR,0.00,VWS V13.01,2013-04-23 16:20:00,
2013-04-23 12:25:00,63.8,39.7,30.08,SSW,212,0.0,4.0,41,0.00,,CLR,0.00,VWS V13.01,2013-04-23 16:25:00,
2013-04-23 12:30:00,64.0,41.1,30.08,SW,214,3.0,5.0,43,0.00,,CLR,0.00,VWS V13.01,2013-04-23 16:30:00,
2013-04-23 12:35:00,64.3,40.7,30.08,SSE,167,3.0,6.0,42,0.00,,CLR,0.00,VWS V13.01,2013-04-23 16:35:00,
2013-04-23 12:40:00,64.5,41.5,30.07,South,175,0.0,6.0,43,0.00,,CLR,0.00,VWS V13.01,2013-04-23 16:40:00,
2013-04-23 12:45:00,64.9,41.3,30.07,South,175,0.0,6.0,42,0.00,,CLR,0.00,VWS V13.01,2013-04-23 16:45:00,
2013-04-23 12:50:00,65.4,42.3,30.06,SSE,162,1.0,6.0,43,0.00,,CLR,0.00,VWS V13.01,2013-04-23 16:50:00,
2013-04-23 12:55:00,65.5,41.8,30.06,WSW,242,0.0,6.0,42,0.00,,CLR,0.00,VWS V13.01,2013-04-23 16:55:00,
2013-04-23 13:00:00,65.8,41.5,30.06,NE,36,3.0,5.0,41,0.00,,CLR,0.00,VWS V13.01,2013-04-23 17:00:00,
2013-04-23 13:05:00,65.9,42.2,30.05,NNE,30,2.0,5.0,42,0.00,,CLR,0.00,VWS V13.01,2013-04-23 17:05:00,
2013-04-23 13:10:00,66.3,44.9,30.05,West,278,0.0,7.0,46,0.00,,CLR,0.00,VWS V13.01,2013-04-23 17:10:00,
2013-04-23 13:16:00,66.2,43.7,30.06,NNE,24,3.0,7.0,44,0.00,,CLR,0.00,VWS V13.01,2013-04-23 17:16:00,
2013-04-23 13:21:00,66.6,42.2,30.05,East,87,0.0,7.0,41,0.00,,CLR,0.00,VWS V13.01,2013-04-23 17:21:00,
2013-04-23 13:26:00,66.8,41.7,30.05,ESE,106,0.0,7.0,40,0.00,,CLR,0.00,VWS V13.01,2013-04-23 17:26:00,
2013-04-23 13:31:00,67.2,42.7,30.04,West,267,4.0,6.0,41,0.00,,CLR,0.00,VWS V13.01,2013-04-23 17:31:00,
2013-04-23 13:36:00,67.2,41.4,30.03,ESE,106,0.0,6.0,39,0.00,,CLR,0.00,VWS V13.01,2013-04-23 17:36:00,
2013-04-23 13:41:00,67.5,44.8,30.02,NNE,26,3.0,6.0,44,0.00,,CLR,0.00,VWS V13.01,2013-04-23 17:41:00,
2013-04-23 13:46:00,67.3,45.2,30.02,NNE,17,0.0,6.0,45,0.00,,CLR,0.00,VWS V13.01,2013-04-23 17:46:00,
2013-04-23 13:51:00,67.4,44.2,30.01,SW,234,0.0,6.0,43,0.00,,CLR,0.00,VWS V13.01,2013-04-23 17:51:00,
2013-04-23 13:56:00,67.5,43.0,30.01,East,97,2.0,6.0,41,0.00,,CLR,0.00,VWS V13.01,2013-04-23 17:56:00,
2013-04-23 14:01:00,68.0,44.1,30.01,West,281,4.0,4.0,42,0.00,,CLR,0.00,VWS V13.01,2013-04-23 18:01:00,
2013-04-23 14:06:00,67.6,44.9,30.01,NE,49,3.0,5.0,44,0.00,,CLR,0.00,VWS V13.01,2013-04-23 18:06:00,
2013-04-23 14:11:00,66.7,44.7,30.01,NNE,17,3.0,6.0,45,0.00,,CLR,0.00,VWS V13.01,2013-04-23 18:11:00,
2013-04-23 14:16:00,66.4,46.1,30.00,SE,138,1.0,6.0,48,0.00,,CLR,0.00,VWS V13.01,2013-04-23 18:16:00,
2013-04-23 14:21:00,67.0,45.0,30.00,East,86,2.0,7.0,45,0.00,,CLR,0.00,VWS V13.01,2013-04-23 18:21:00,
2013-04-23 14:26:00,67.2,44.6,29.99,North,5,7.0,10.0,44,0.00,,CLR,0.00,VWS V13.01,2013-04-23 18:26:00,
2013-04-23 14:31:00,66.8,45.4,29.99,East,98,0.0,4.0,46,0.00,,CLR,0.00,VWS V13.01,2013-04-23 18:31:00,
2013-04-23 14:36:00,67.6,44.3,29.99,ESE,104,0.0,4.0,43,0.00,,CLR,0.00,VWS V13.01,2013-04-23 18:36:00,
2013-04-23 14:41:00,67.9,46.4,29.99,NNE,29,1.0,5.0,46,0.00,,CLR,0.00,VWS V13.01,2013-04-23 18:41:00,
2013-04-23 14:46:00,68.2,44.9,29.98,SE,144,1.0,7.0,43,0.00,,CLR,0.00,VWS V13.01,2013-04-23 18:46:00,
2013-04-23 14:51:00,69.2,43.9,29.98,South,173,1.0,7.0,40,0.00,,CLR,0.00,VWS V13.01,2013-04-23 18:51:00,
2013-04-23 14:56:00,69.8,45.7,29.98,South,188,5.0,7.0,42,0.00,,CLR,0.00,VWS V13.01,2013-04-23 18:56:00,
2013-04-23 15:01:00,69.6,45.5,29.98,NW,319,0.0,6.0,42,0.00,,CLR,0.00,VWS V13.01,2013-04-23 19:01:00,
2013-04-23 15:06:00,68.4,46.8,29.98,SW,217,0.0,10.0,46,0.00,,CLR,0.00,VWS V13.01,2013-04-23 19:06:00,
2013-04-23 15:11:00,68.3,45.6,29.98,ESE,106,0.0,10.0,44,0.00,,CLR,0.00,VWS V13.01,2013-04-23 19:11:00,
2013-04-23 15:16:00,68.7,42.8,29.98,SW,217,6.0,10.0,39,0.00,,CLR,0.00,VWS V13.01,2013-04-23 19:16:00,
2013-04-23 15:21:00,69.6,46.1,29.97,WSW,246,6.0,10.0,43,0.00,,CLR,0.00,VWS V13.01,2013-04-23 19:21:00,
2013-04-23 15:26:00,70.2,46.7,29.97,SW,217,1.0,10.0,43,0.00,,CLR,0.00,VWS V13.01,2013-04-23 19:26:00,
2013-04-23 15:31:00,70.7,45.2,29.97,WSW,252,3.0,3.0,40,0.00,,CLR,0.00,VWS V13.01,2013-04-23 19:31:00,
2013-04-23 15:36:00,71.2,45.7,29.97,SW,221,0.0,6.0,40,0.00,,CLR,0.00,VWS V13.01,2013-04-23 19:36:00,
2013-04-23 15:41:00,71.3,45.8,29.97,SW,225,1.0,6.0,40,0.00,,CLR,0.00,VWS V13.01,2013-04-23 19:41:00,
2013-04-23 15:46:00,71.2,45.7,29.97,West,276,7.0,7.0,40,0.00,,CLR,0.00,VWS V13.01,2013-04-23 19:46:00,
2013-04-23 15:51:00,70.5,44.4,29.96,South,190,1.0,10.0,39,0.00,,CLR,0.00,VWS V13.01,2013-04-23 19:51:00,
2013-04-23 15:56:00,70.8,44.6,29.95,ENE,60,1.0,10.0,39,0.00,,CLR,0.00,VWS V13.01,2013-04-23 19:56:00,
2013-04-23 16:01:00,70.0,46.5,29.95,WNW,282,1.0,3.0,43,0.00,,CLR,0.00,VWS V13.01,2013-04-23 20:01:00,
2013-04-23 16:06:00,68.5,44.5,29.95,NE,49,2.0,4.0,42,0.00,,CLR,0.00,VWS V13.01,2013-04-23 20:06:00,
2013-04-23 16:11:00,67.2,44.6,29.95,NNW,341,1.0,6.0,44,0.00,,CLR,0.00,VWS V13.01,2013-04-23 20:11:00,
2013-04-23 16:16:00,66.5,45.7,29.95,WSW,258,0.0,6.0,47,0.00,,CLR,0.00,VWS V13.01,2013-04-23 20:16:00,
2013-04-23 16:21:00,66.6,46.3,29.94,NNW,348,3.0,6.0,48,0.00,,CLR,0.00,VWS V13.01,2013-04-23 20:21:00,
2013-04-23 16:26:00,66.9,44.9,29.94,West,276,3.0,6.0,45,0.00,,CLR,0.00,VWS V13.01,2013-04-23 20:26:00,
2013-04-23 16:31:00,66.9,44.9,29.94,NNW,336,2.0,6.0,45,0.00,,CLR,0.00,VWS V13.01,2013-04-23 20:31:00,
2013-04-23 16:36:00,67.9,47.0,29.94,SW,230,0.0,6.0,47,0.00,,CLR,0.00,VWS V13.01,2013-04-23 20:36:00,
2013-04-23 16:41:00,69.3,44.6,29.94,SSW,202,0.0,6.0,41,0.00,,CLR,0.00,VWS V13.01,2013-04-23 20:41:00,
2013-04-23 16:47:00,70.4,44.3,29.94,SSE,154,0.0,9.0,39,0.00,,CLR,0.00,VWS V13.01,2013-04-23 20:47:00,
2013-04-23 16:52:00,71.1,45.6,29.93,SW,221,0.0,9.0,40,0.00,,CLR,0.00,VWS V13.01,2013-04-23 20:52:00,
2013-04-23 16:57:00,71.3,44.4,29.93,SSW,209,2.0,9.0,38,0.00,,CLR,0.00,VWS V13.01,2013-04-23 20:57:00,
2013-04-23 17:02:00,71.1,43.5,29.93,SSW,206,1.0,7.0,37,0.00,,CLR,0.00,VWS V13.01,2013-04-23 21:02:00,
2013-04-23 17:07:00,71.2,43.6,29.93,SSW,211,1.0,7.0,37,0.00,,CLR,0.00,VWS V13.01,2013-04-23 21:07:00,
2013-04-23 17:12:00,71.3,43.7,29.93,SSW,207,5.0,11.0,37,0.00,,CLR,0.00,VWS V13.01,2013-04-23 21:12:00,
2013-04-23 17:17:00,71.2,44.3,29.93,WSW,242,6.0,11.0,38,0.00,,CLR,0.00,VWS V13.01,2013-04-23 21:17:00,
2013-04-23 17:22:00,71.1,42.8,29.93,SSW,193,4.0,11.0,36,0.00,,CLR,0.00,VWS V13.01,2013-04-23 21:22:00,
2013-04-23 17:27:00,70.7,43.2,29.92,SSW,200,0.0,12.0,37,0.00,,CLR,0.00,VWS V13.01,2013-04-23 21:27:00,
2013-04-23 17:32:00,70.6,42.4,29.92,SSW,202,0.0,7.0,36,0.00,,CLR,0.00,VWS V13.01,2013-04-23 21:32:00,
2013-04-23 17:37:00,70.6,42.4,29.92,ESE,115,1.0,10.0,36,0.00,,CLR,0.00,VWS V13.01,2013-04-23 21:37:00,
2013-04-23 17:42:00,70.7,43.2,29.92,SSW,213,1.0,10.0,37,0.00,,CLR,0.00,VWS V13.01,2013-04-23 21:42:00,
2013-04-23 17:47:00,70.8,44.0,29.92,SW,217,0.0,10.0,38,0.00,,CLR,0.00,VWS V13.01,2013-04-23 21:47:00,
2013-04-23 20:51:00,64.5,42.1,29.89,SSE,161,0.0,5.0,44,0.00,,CLR,0.00,VWS V13.01,2013-04-24 00:51:00,
2013-04-23 20:56:00,64.3,42.5,29.89,SSE,161,0.0,5.0,45,0.00,,CLR,0.00,VWS V13.01,2013-04-24 00:56:00,
2013-04-23 21:01:00,64.2,42.4,29.88,SSE,162,1.0,2.0,45,0.00,,CLR,0.00,VWS V13.01,2013-04-24 01:01:00,
2013-04-23 21:06:00,64.1,42.3,29.88,SE,140,0.0,4.0,45,0.00,,CLR,0.00,VWS V13.01,2013-04-24 01:06:00,
2013-04-23 21:11:00,64.1,42.3,29.88,SE,139,1.0,4.0,45,0.00,,CLR,0.00,VWS V13.01,2013-04-24 01:11:00,
2013-04-23 21:16:00,64.0,42.3,29.88,SSE,147,3.0,4.0,45,0.00,,CLR,0.00,VWS V13.01,2013-04-24 01:16:00,
2013-04-23 21:21:00,63.9,42.2,29.88,South,175,2.0,4.0,45,0.00,,CLR,0.00,VWS V13.01,2013-04-24 01:21:00,
2013-04-23 21:26:00,63.8,42.1,29.88,South,169,0.0,4.0,45,0.00,,CLR,0.00,VWS V13.01,2013-04-24 01:26:00,
2013-04-23 21:31:00,63.6,41.9,29.88,South,169,0.0,0.0,45,0.00,,CLR,0.00,VWS V13.01,2013-04-24 01:31:00,
2013-04-23 21:36:00,63.4,42.3,29.87,South,169,1.0,1.0,46,0.00,,CLR,0.00,VWS V13.01,2013-04-24 01:36:00,
2013-04-23 21:41:00,63.4,42.3,29.87,SE,140,0.0,5.0,46,0.00,,CLR,0.00,VWS V13.01,2013-04-24 01:41:00,
2013-04-23 21:46:00,63.4,42.3,29.87,SE,128,0.0,5.0,46,0.00,,CLR,0.00,VWS V13.01,2013-04-24 01:46:00,
2013-04-23 21:51:00,63.4,42.3,29.87,SSE,152,0.0,6.0,46,0.00,,CLR,0.00,VWS V13.01,2013-04-24 01:51:00,
2013-04-23 21:56:00,63.4,42.3,29.87,SSE,168,0.0,6.0,46,0.00,,CLR,0.00,VWS V13.01,2013-04-24 01:56:00,
2013-04-23 22:01:00,63.4,41.7,29.87,South,175,1.0,3.0,45,0.00,,CLR,0.00,VWS V13.01,2013-04-24 02:01:00,
2013-04-23 22:06:00,63.5,41.8,29.86,South,175,0.0,3.0,45,0.00,,CLR,0.00,VWS V13.01,2013-04-24 02:06:00,
2013-04-23 22:11:00,63.5,41.8,29.86,ESE,107,0.0,3.0,45,0.00,,CLR,0.00,VWS V13.01,2013-04-24 02:11:00,
2013-04-23 22:16:00,63.5,41.8,29.86,SE,135,0.0,4.0,45,0.00,,CLR,0.00,VWS V13.01,2013-04-24 02:16:00,
2013-04-23 22:21:00,63.5,41.8,29.86,SE,131,1.0,4.0,45,0.00,,CLR,0.00,VWS V13.01,2013-04-24 02:21:00,
2013-04-23 22:27:00,63.4,41.7,29.86,SSE,148,0.0,4.0,45,0.00,,CLR,0.00,VWS V13.01,2013-04-24 02:27:00,
2013-04-23 22:32:00,63.3,41.0,29.86,SSE,162,0.0,4.0,44,0.00,,CLR,0.00,VWS V13.01,2013-04-24 02:32:00,
2013-04-23 22:38:00,63.3,41.6,29.86,SSW,196,1.0,5.0,45,0.00,,CLR,0.00,VWS V13.01,2013-04-24 02:38:00,
2013-04-23 22:44:00,63.5,40.6,29.86,SSW,202,0.0,6.0,43,0.00,,CLR,0.00,VWS V13.01,2013-04-24 02:44:00,
2013-04-23 22:49:00,63.6,41.3,29.85,ESE,120,3.0,6.0,44,0.00,,CLR,0.00,VWS V13.01,2013-04-24 02:49:00,
2013-04-23 22:54:00,63.6,40.7,29.85,South,187,3.0,6.0,43,0.00,,CLR,0.00,VWS V13.01,2013-04-24 02:54:00,
2013-04-23 22:59:00,63.7,40.8,29.85,SSE,148,2.0,11.0,43,0.00,,CLR,0.00,VWS V13.01,2013-04-24 02:59:00,
2013-04-23 23:04:00,63.7,40.8,29.84,South,176,0.0,3.0,43,0.00,,CLR,0.00,VWS V13.01,2013-04-24 03:04:00,
2013-04-23 23:09:00,63.7,40.8,29.84,SSW,199,0.0,11.0,43,0.00,,CLR,0.00,VWS V13.01,2013-04-24 03:09:00,
2013-04-23 23:14:00,63.8,40.9,29.84,SSW,206,1.0,11.0,43,0.00,,CLR,0.00,VWS V13.01,2013-04-24 03:14:00,
2013-04-23 23:19:00,63.9,40.4,29.83,SSE,153,2.0,11.0,42,0.00,,OVC110,0.00,VWS V13.01,2013-04-24 03:19:00,
2013-04-23 23:24:00,63.9,40.4,29.83,South,186,3.0,11.0,42,0.00,,OVC110,0.00,VWS V13.01,2013-04-24 03:24:00,
2013-04-23 23:29:00,64.1,40.6,29.83,South,173,0.0,11.0,42,0.00,,OVC110,0.00,VWS V13.01,2013-04-24 03:29:00,
2013-04-23 23:34:00,64.2,40.7,29.83,SSW,194,3.0,7.0,42,0.00,,OVC110,0.00,VWS V13.01,2013-04-24 03:34:00,
2013-04-23 23:39:00,64.3,40.1,29.82,SE,143,3.0,7.0,41,0.00,,OVC110,0.00,VWS V13.01,2013-04-24 03:39:00,
2013-04-23 23:44:00,64.3,40.1,29.82,SSE,157,0.0,7.0,41,0.00,,OVC110,0.00,VWS V13.01,2013-04-24 03:44:00,
2013-04-23 23:50:00,64.3,40.1,29.82,SE,129,0.0,9.0,41,0.00,,OVC110,0.00,VWS V13.01,2013-04-24 03:50:00,
2013-04-23 23:55:00,64.3,40.1,29.82,SW,214,4.0,9.0,41,0.00,,OVC110,0.00,VWS V13.01,2013-04-24 03:55:00,